Theta_e
308 309 309 309 309 309 310 310 310 311 311 311 311 311 312 312 313 313 314 314 314 314 314 315 316 317 317 320 331 331 322 320 324 325 324 324 326 328 326 325 327 333 333 334 335 333 333
308 308 308 308 309 309 309 309 310 310 310 310 311 311 312 312 313 313 314 314 314 314 314 315 315 316 317 321 330 329 323 324 324 324 324 324 326 327 327 326 327 329 328 330 332 332 333
307 307 307 308 308 308 308 309 309 309 310 310 311 311 311 312 313 314 314 314 315 314 314 315 315 316 318 319 327 328 323 325 324 324 324 324 327 327 327 325 326 327 329 327 329 330 333
306 306 307 307 307 307 308 308 308 309 309 310 310 311 311 312 313 314 314 314 315 315 315 315 315 317 321 324 324 324 324 324 324 323 323 325 325 325 327 327 324 323 322 325 327 328 329
306 306 306 306 307 307 307 307 308 308 308 309 310 310 311 311 312 313 314 315 315 315 315 315 315 322 321 325 324 324 326 324 326 325 324 324 325 324 325 321 320 318 323 323 323 326 330
305 305 305 306 306 306 307 307 307 308 308 309 309 310 310 311 312 313 314 315 316 322 322 321 317 316 319 324 325 326 325 325 327 326 324 324 324 319 317 319 321 323 323 322 324 329 331
304 304 304 305 305 305 306 306 306 307 308 308 309 309 310 311 311 312 315 322 322 323 321 321 321 317 319 324 325 325 324 326 326 324 320 321 320 321 320 321 322 323 322 321 323 326 330
303 303 303 303 304 304 305 305 306 306 307 307 308 309 309 310 311 312 318 319 316 317 316 319 321 322 323 323 324 324 327 327 324 322 322 319 319 319 322 323 323 322 321 321 322 325 327
303 303 303 303 303 303 304 304 305 306 306 306 307 308 309 310 311 311 317 316 317 318 317 319 319 321 323 323 324 325 326 326 324 323 322 321 322 323 325 325 324 322 322 322 324 323 323
302 302 302 303 303 302 302 303 304 305 305 305 306 307 308 309 310 314 317 317 318 318 312 315 319 319 321 322 323 326 325 327 325 324 322 322 323 324 324 325 322 324 321 326 326 324 324
301 301 302 302 302 302 302 303 303 304 305 305 305 306 307 308 310 315 317 318 318 318 312 318 319 320 321 324 323 323 326 325 324 323 322 323 325 326 326 325 323 323 325 326 325 322 322
301 301 301 301 302 302 302 303 303 304 304 305 305 305 306 308 309 314 316 320 318 314 314 319 320 319 320 321 322 323 324 324 325 324 323 322 325 327 326 325 323 324 324 320 320 318 322
301 301 301 301 302 302 302 303 303 304 304 305 305 306 306 307 309 313 316 318 311 315 316 319 320 318 318 318 320 321 323 323 322 322 323 325 327 327 327 326 324 321 319 320 321 323 325
300 300 301 301 301 302 302 303 303 304 305 306 306 306 306 307 308 314 315 313 313 313 316 317 319 317 318 318 319 319 322 322 322 324 323 325 327 328 327 325 325 323 319 320 325 324 325
300 300 300 300 301 301 302 303 303 304 305 306 306 307 307 307 308 314 315 311 312 316 320 319 318 319 318 318 319 319 319 320 322 322 322 325 328 327 327 326 324 324 323 320 319 320 322
300 300 300 300 300 301 301 303 303 304 305 307 306 309 308 310 308 315 310 310 312 315 318 317 319 319 320 318 318 317 317 321 323 322 322 323 326 325 327 325 323 322 319 322 317 325 327
299 299 300 300 300 300 301 302 303 305 306 306 311 317 315 310 312 315 309 309 313 316 316 317 317 318 319 322 317 315 317 320 323 323 321 321 322 324 326 325 324 323 322 317 316 318 321
299 299 300 300 300 300 300 302 303 304 306 306 311 314 315 310 310 306 308 311 313 313 314 314 314 315 318 320 323 325 317 319 324 323 322 321 319 323 324 325 324 323 322 318 321 324 320
299 299 299 300 300 300 301 301 303 303 305 306 309 318 315 312 310 306 307 311 313 313 312 314 315 317 318 319 323 324 323 323 324 321 321 320 320 323 323 322 324 326 325 319 316 316 321
299 299 299 299 299 300 300 301 302 303 306 312 314 317 315 314 312 309 311 311 314 317 315 315 314 316 317 320 320 322 322 324 323 327 325 323 317 322 324 324 325 327 327 324 320 321 322
299 298 298 298 299 299 300 300 302 303 314 314 316 314 312 313 312 311 310 311 313 314 317 317 316 317 318 320 321 325 326 326 326 326 321 320 325 325 323 325 326 327 329 327 327 324 327
299 299 298 299 299 299 300 300 301 302 311 314 312 310 311 312 314 313 311 311 312 312 314 317 316 322 322 325 324 325 324 325 328 325 320 317 324 324 325 328 328 329 327 328 331 335 329
298 299 299 298 299 298 299 299 300 300 307 310 308 309 310 312 311 311 312 312 314 316 318 325 324 323 324 323 324 325 324 321 323 326 329 327 319 319 322 328 326 323 329 332 338 338 336
297 298 299 299 298 298 298 299 299 298 303 308 307 310 311 312 310 311 312 313 315 316 322 322 323 322 324 324 325 324 321 321 321 319 324 326 327 324 327 326 324 324 336 335 340 340 336
298 298 299 299 298 298 298 298 299 297 299 308 306 306 309 308 310 311 311 311 315 318 321 321 321 320 322 323 319 319 319 320 321 320 321 320 321 323 326 326 325 334 338 333 334 340 337
300 297 298 299 299 297 297 298 298 297 299 308 305 304 305 308 310 310 310 310 311 313 315 320 321 320 320 315 318 320 320 320 321 322 316 318 317 322 322 326 328 325 330 335 329 328 337
300 299 297 298 298 297 297 297 298 297 300 307 307 306 307 307 308 309 309 309 309 311 313 316 316 323 319 314 317 319 321 320 322 321 320 315 316 320 324 324 323 322 332 332 326 322 336
300 300 299 297 298 297 297 297 297 298 297 306 308 307 307 307 305 306 309 308 308 310 311 315 318 322 323 316 316 316 316 316 318 319 321 319 318 318 319 322 323 338 342 332 327 338 335
300 300 299 297 298 297 297 296 297 297 297 299 305 307 305 306 305 305 306 308 307 308 308 316 317 317 319 323 321 319 318 316 317 319 320 324 319 319 318 319 334 337 340 340 334 338 335
Wind_Speed
1 2 3 4 5 6 6 7 7 9 10 10 10 10 11 11 11 11 10 10 10 10 11 10 10 10 7 3 2 3 4 4 7 6 6 9 6 4 2 4 6 5 6 14 27 9 9
1 2 4 5 6 7 8 8 9 9 10 11 11 11 12 12 12 12 12 11 11 11 11 10 9 8 5 3 1 3 1 4 3 3 5 9 5 7 2 5 1 9 16 13 5 4 3
2 3 4 5 6 7 8 9 9 10 11 12 12 12 13 13 13 13 12 12 12 11 12 10 9 9 7 6 4 2 2 3 2 2 3 7 8 8 6 5 9 6 4 6 5 1 1
3 4 5 5 6 7 9 10 10 11 11 12 13 13 13 13 14 14 13 13 13 12 12 10 9 9 6 4 8 5 2 4 2 2 4 6 9 9 2 7 7 4 5 4 7 3 7
5 6 6 7 7 7 8 10 10 11 12 12 13 14 14 14 14 14 13 13 13 12 11 10 9 6 6 6 10 5 5 4 2 2 2 4 8 3 3 3 6 7 2 4 9 4 4
7 7 7 7 8 9 9 10 11 11 12 13 13 14 14 14 13 13 12 12 9 7 6 8 10 5 6 1 5 6 10 5 5 8 4 2 1 3 4 5 3 4 4 5 6 5 2
8 8 9 9 9 10 10 11 11 12 12 13 13 13 13 13 12 11 8 4 3 3 9 8 6 6 11 5 2 5 8 8 6 2 2 4 5 3 5 5 4 3 4 6 5 5 5
9 10 10 10 10 10 11 12 12 12 13 13 14 14 12 11 10 6 5 6 7 7 11 10 16 21 20 18 5 7 11 6 2 2 2 6 4 8 4 5 6 6 5 6 5 3 0
11 11 11 11 11 11 12 12 12 13 13 13 14 13 13 9 7 3 3 5 7 4 4 12 14 17 18 10 9 12 14 11 3 3 3 5 6 3 3 4 5 3 3 3 5 6 6
11 11 12 12 12 12 12 13 13 13 13 14 14 13 13 7 4 5 5 2 2 3 5 7 5 10 16 15 6 17 16 10 3 6 6 5 6 4 5 6 7 3 5 2 2 4 2
13 13 13 12 12 13 14 13 13 14 14 14 14 13 11 6 5 5 4 3 2 1 3 3 4 2 13 15 2 5 22 15 7 4 5 6 2 7 4 6 5 8 3 2 3 4 2
11 12 14 14 14 14 14 14 14 14 14 14 14 15 10 9 8 6 2 5 2 5 6 6 5 5 5 5 2 3 13 12 4 3 3 7 6 5 6 4 4 3 4 7 5 3 3
11 11 12 14 15 15 15 15 15 15 16 14 13 15 12 9 4 5 6 6 5 3 5 5 1 1 3 6 4 3 5 4 6 4 2 5 4 4 5 1 3 7 7 4 4 5 5
11 12 12 13 15 16 16 17 17 16 17 15 13 14 13 9 10 8 7 4 3 5 6 5 4 0 6 3 3 5 5 4 2 4 3 3 6 2 1 4 6 3 7 5 4 2 5
11 12 13 14 14 16 17 17 18 17 18 16 13 12 11 6 13 12 7 3 7 6 4 6 8 0 3 4 2 4 7 7 8 7 7 5 5 3 3 5 7 3 2 4 7 3 3
11 12 13 14 15 16 17 18 18 18 18 16 12 6 2 6 16 14 4 6 5 4 5 4 2 2 1 5 7 7 8 5 5 10 8 6 2 3 5 4 4 7 7 3 3 2 2
11 12 13 14 15 17 17 18 19 18 17 14 6 1 6 9 18 8 4 6 4 8 7 1 2 3 4 2 7 6 7 4 9 7 8 5 4 6 3 1 7 2 2 7 5 4 5
11 12 13 15 16 16 17 18 19 18 18 12 2 3 10 14 3 2 2 4 4 4 3 4 2 5 4 2 2 1 7 9 14 13 10 8 5 4 9 1 3 3 4 5 5 3 2
10 12 14 15 16 17 17 18 18 18 19 18 6 3 12 14 2 2 5 5 4 3 5 3 3 2 3 3 1 3 2 3 4 10 10 8 1 2 9 7 4 7 3 6 5 3 3
9 10 12 14 15 16 16 16 17 16 14 12 3 2 3 11 3 4 1 5 4 7 8 8 6 5 4 3 4 2 5 4 7 5 8 12 4 7 7 7 4 4 4 4 5 3 4
9 11 12 14 15 15 16 16 16 13 10 7 5 2 2 2 2 3 3 3 3 4 4 7 2 4 4 1 3 5 4 6 6 10 4 5 5 3 3 5 4 3 3 4 4 4 4
10 11 12 14 14 15 15 15 15 12 5 6 4 4 5 4 9 5 5 3 7 7 5 4 3 3 4 5 4 1 1 5 2 6 4 3 2 3 3 3 5 3 4 4 4 2 1
11 11 12 12 13 14 14 14 14 13 7 3 5 3 2 3 6 3 1 4 6 5 4 2 4 5 5 5 6 4 2 3 2 1 3 3 5 3 3 2 4 4 2 3 5 4 2
13 12 11 12 12 13 14 13 13 13 10 8 9 4 2 2 2 2 4 9 7 5 3 4 9 3 2 3 0 2 2 3 8 7 2 3 4 3 2 3 2 5 4 7 10 2 2
12 11 11 12 11 11 12 12 10 9 7 5 9 4 3 1 4 6 13 11 9 7 4 5 10 6 2 3 4 5 5 5 4 4 5 5 4 4 4 3 3 3 4 3 3 2 5
10 12 11 12 11 10 10 10 9 8 7 2 5 5 1 1 3 6 5 9 3 5 7 5 7 11 3 4 4 3 3 4 3 3 4 6 7 5 2 4 5 5 1 1 5 4 15
9 11 12 10 11 10 9 9 9 8 5 3 4 5 3 4 2 5 3 3 6 4 2 5 10 9 7 3 3 2 2 2 2 3 3 3 3 4 3 3 6 5 6 5 3 7 14
9 10 12 10 10 10 8 8 8 7 5 2 1 5 6 5 10 6 3 5 7 5 2 8 3 6 5 4 2 1 1 2 1 2 1 3 4 2 3 4 5 4 4 3 4 3 14
10 10 11 11 9 9 9 8 8 8 6 3 4 7 11 9 7 10 12 10 8 4 6 8 2 1 3 3 2 2 2 3 1 2 3 1 4 3 5 5 4 7 2 4 7 5 7
Wind_Direction
16 316 306 314 315 316 322 321 318 317 319 321 321 321 320 319 319 317 318 321 322 323 323 329 336 335 346 305 262 355 3 92 124 92 53 26 56 32 9 291 314 202 259 284 244 267 256
332 308 310 315 317 317 316 317 316 314 313 314 316 317 315 314 313 311 311 313 311 314 313 320 325 328 329 292 215 3 357 111 135 54 42 41 25 347 291 284 324 309 285 282 280 279 192
338 316 318 316 316 314 313 312 311 310 311 312 313 312 311 311 309 307 306 306 304 308 304 308 314 315 287 255 223 278 296 203 226 339 36 34 25 356 318 316 325 291 289 333 297 354 70
336 336 331 325 322 315 312 312 311 310 310 309 308 308 309 309 307 305 304 303 300 298 295 298 303 306 261 211 217 245 284 200 139 28 348 18 349 327 230 305 342 25 42 4 288 11 295
354 344 341 332 326 318 313 311 313 312 311 308 307 307 308 309 307 305 306 298 298 293 289 291 291 288 266 226 237 235 244 212 281 331 358 320 330 353 14 57 8 8 323 310 309 244 176
359 350 344 336 330 325 318 312 313 312 309 307 306 304 308 309 309 307 310 301 302 300 300 282 265 286 237 158 280 246 242 232 284 334 329 331 50 51 40 64 212 278 328 287 264 304 52
3 356 349 345 336 329 324 320 315 314 312 310 306 302 303 304 306 318 330 314 335 272 306 255 272 268 265 321 241 212 198 211 255 279 63 14 50 235 226 209 215 265 231 243 260 292 205
7 2 356 349 341 335 328 323 320 317 315 312 308 304 301 297 299 318 52 78 30 301 302 270 259 256 259 278 298 197 171 193 176 202 76 15 251 242 228 223 240 240 254 298 291 334 288
5 1 358 352 345 339 334 328 324 320 316 311 308 305 300 294 285 243 132 56 38 3 258 287 249 244 242 246 225 229 194 199 154 165 172 167 240 350 200 284 293 234 222 275 229 345 13
3 2 358 352 347 344 339 335 329 323 318 313 309 306 302 295 253 208 180 82 25 323 39 274 233 240 215 215 263 223 201 183 196 210 184 224 273 265 242 247 162 275 191 228 56 71 262
2 1 358 354 349 345 342 340 333 327 320 315 310 304 302 279 250 208 228 150 251 303 339 249 214 198 187 172 159 205 211 199 188 199 90 252 311 358 315 222 149 225 134 31 99 97 52
3 0 356 355 351 347 344 340 336 330 322 316 311 300 294 281 249 211 213 176 146 48 251 319 186 166 117 189 232 67 174 200 221 174 229 239 272 233 220 254 172 96 79 45 55 62 31
1 358 356 354 352 347 343 340 337 332 323 318 311 297 289 265 234 191 183 168 54 151 332 300 333 33 202 175 211 150 140 163 170 135 305 329 264 270 225 322 33 75 54 1 360 8 216
360 357 357 356 351 348 345 342 338 334 326 323 312 296 280 248 221 169 170 59 158 231 255 298 316 346 178 148 242 158 141 203 266 98 91 119 322 197 23 168 185 86 137 148 192 220 266
359 357 355 356 353 349 345 343 340 339 330 327 317 298 279 233 196 177 175 95 206 212 297 348 328 0 240 229 160 145 187 200 204 163 168 161 267 315 262 194 137 185 107 177 102 23 45
356 354 351 353 352 351 348 346 342 345 336 332 325 312 246 185 175 176 93 223 230 231 328 20 18 343 320 270 160 156 181 210 213 185 167 201 290 254 295 90 61 153 156 74 23 165 264
354 352 350 350 350 351 352 350 346 348 344 335 334 41 152 145 161 172 168 230 279 276 343 359 275 289 270 276 189 181 199 272 203 180 136 135 108 282 15 310 167 67 73 49 113 123 159
355 350 348 348 348 351 353 355 350 352 354 349 12 58 149 153 97 36 178 212 321 309 329 308 253 239 257 294 315 166 212 221 210 156 161 198 154 227 236 284 292 127 139 127 120 234 101
357 353 350 348 346 348 355 358 354 357 358 358 358 51 172 178 127 293 292 287 270 271 243 259 285 273 291 278 250 233 234 262 5 164 167 174 235 311 340 354 6 83 75 109 118 85 177
355 356 352 349 348 347 352 1 359 360 4 355 4 58 153 219 237 148 357 274 251 255 244 219 240 279 273 350 30 306 335 351 2 67 118 141 117 164 202 202 182 126 90 72 108 98 180
354 360 358 354 351 350 353 3 5 8 28 18 11 44 39 305 299 283 188 270 304 312 268 222 244 228 221 34 15 359 321 346 353 20 72 107 124 150 147 163 144 117 97 154 157 170 142
351 357 1 360 355 353 355 5 13 12 32 43 28 10 3 298 309 308 171 265 226 260 229 294 204 161 134 145 195 164 294 20 347 334 46 351 137 113 45 78 115 123 34 88 90 110 173
352 354 359 2 358 354 355 7 16 24 37 40 23 343 319 331 345 30 256 286 274 320 227 264 229 116 116 188 190 263 243 96 45 340 26 43 119 95 174 315 114 25 13 103 94 51 135
357 350 355 359 360 358 355 6 15 24 34 40 19 18 7 290 12 298 305 336 290 273 257 16 106 99 286 280 261 107 34 34 60 33 81 115 83 78 135 42 62 257 2 113 111 88 71
352 350 350 355 356 358 357 1 11 17 26 41 25 21 3 304 297 322 332 345 355 4 21 41 38 6 79 84 52 39 348 9 337 30 25 72 109 67 111 108 259 117 223 165 138 219 195
336 347 344 349 351 351 355 355 0 6 23 79 24 2 337 278 250 328 323 359 355 334 342 343 27 38 56 75 75 123 180 230 301 347 65 46 70 102 97 114 180 237 310 137 108 311 187
319 332 341 338 343 347 348 350 350 359 24 104 24 3 317 287 267 359 16 331 346 343 273 325 337 5 26 52 72 124 220 241 214 185 210 20 19 135 130 144 285 255 297 175 103 238 183
303 316 332 331 335 341 339 341 340 344 352 224 353 345 349 300 292 257 280 340 350 11 33 325 351 358 30 64 108 200 141 266 346 260 6 151 133 190 95 101 267 11 285 165 200 1 191
292 300 317 324 323 332 335 333 334 335 339 338 246 307 306 282 276 293 271 279 273 286 321 5 73 158 54 86 58 105 27 20 80 276 334 76 159 195 167 212 304 344 350 130 143 120 178